SL-8 R/B

Satellite information

Favourite Embed

Satellite Type and Status

ROCKET BODYIN ORBIT

Key statistics

Satellite SL-8 R/B at a glance.

Uptime

13403

Days in orbit

Revolutions

≈ 13.8

Per day

Orbit

LEO

Low Earth Orbit

Inclination

83.0

Latest

Satellite identification and parameters

Extended collection of information and parameters for SL-8 R/B.

Object identification

Identified? True

Debris? False

Object name: SL-8 R/B

International designator: 1989-028B

Object number (NORAD): 19922

Object ID (CCSDS): 19922

Country: COMMONWEALTH OF INDEPENDENT STATES (CIS)

Current information (Y/N): Y

RCS size: LARGE

Orbital parameters

Period: 104.538 minutes

Inclination: 82.9583 deg

SMA: 7350.957 km

Apoapsis: 999.115 km

Periapsis: 946.528 km

RAAN: 286.6675 deg

Eccentricy: 0.00357692

Argument of periapsis: 198.9317 deg

Mean anomaly: 161.0513 deg

Mean motion: 13.77485279 rev/day

Mean motion (dot): 0.00000139 rev/day2

B* drag term: 0.00012416801 1/REarth

Two-line elements (TLE)

Creation date: Dec. 12, 2025, 10:14 a.m.

Reference frame: TEME

Reference center: EARTH

Epoch: Dec. 12, 2025, 6:51 a.m. UTC

TLE line 0: 0 SL-8 R/B

TLE line 1: 1 19922U 89028B 25346.28597975 .00000139 00000-0 12417-3 0 9993

TLE line 2: 2 19922 82.9583 286.6675 0035769 198.9317 161.0513 13.77485279843700

Live tracking on map

Real-time ground track for satellite SL-8 R/B.

In-orbit conjunctions

A list of the most updated potential collisions computed for object SL-8 R/B.

Target Orbit TCA Probability of collision Miss distance Type
COSMOS 249 DEB LEO 2025-10-21 05:56:38 0.0001290107 200.0 (m) DEBRIS
FENGYUN 1C DEB SSO 2025-08-22 01:52:37 0.0001559113 264.0 (m) DEBRIS
COSMOS 952 DEB LEO 2024-06-11 19:04:29 0.0001760783 268.0 (m) DEBRIS

Associated space launch

Navigation satellite providing location information for the Tsiklon-B navigation system

SL-8 R/B was lifted into orbit during the mission ‘Kosmos-3M | Parus 65’, on board a Kosmos-3M space rocket.

The launch took place on April 4, 1989, 6:36 p.m. from 132/2.

For more information about the launch, click the button.

Launch to space Kosmos-3M | Parus 65
Kosmos-3M | Parus 65

Agency: N/A

Status: Launch Successful

Launch date: April 4, 1989, 6:36 p.m. UTC

Rocket: Kosmos-3M

Launch pad: 132/2

Location: Plesetsk Cosmodrome, Russian Federation

...

Latest news about this satellite

There are no fresh news available about this satellite. Check back as we update our databases every day.


Newsletter sign-up

Weekly statistics, charts and insights to help you stay on top of the space industry.